Погода в Морозовске

Погода в Морозовске : погода сейчас, прогноз погоды и архив. Всё, что Вы хотите узнать о погоде в Морозовске!

Хотите узнать прогноз погоды в Морозовске? Тогда Вам сюда: Погода в Морозовске

Поиск расширенной информации на нашем сайте:

Другие новости

Новости СМИ2

Главная страница сайта

Новости сайта

03.07.2017

Напоминаем, что на нашем специализированном сайте Метеоцентр.Азия вы можете получить высокодетализированные автоматические прогнозы погоды по пунктам России, СНГ и мира в авиационном формате (включающие направление и скорость ветра, видимость, явления погоды, количество и форму облачности, нижнюю и верхнюю границу облачности).


Погода в Морозовске - сегодня

Время (UTC), дата Ветер
(°,м/с) 
Видим.   Явления Облачность Т
(°С)
Тd
(°С)
f(%) Тe
(°С)
Pmin
(гПа)
dP
(гПа)
Po
(мм)
O2
(г/м3)
Тmin Tmax R s Состояние
почвы
15 17.10.17 310 (СЗ) 3{10}  20000 м    10/10 600 м кучево-дожд. 
[Cb calv]
+11.2 +6.8 74 +11  1016.3  1.2  754  291    +13.8       
18 17.10.17 240 (ЮЗ) 20000 м    10/10 600 м 
[Sc]
+8.9 +7.4 90 +8  1017.7  1.3  755  293           
21 17.10.17 270 (З) 20000 м    10/10 600 м 
[Sc]
+9.3 +7.9 91 +9  1019  1.3  756  293           
00 18.10.17 280 (З) 20000 м    10/10 600 м 
[Sc]
+7.8 +7.2 96 +8  1020.8  1.7  757  295           
03 18.10.17 260 (З) 0500 м  туман  ?/?  
+4.7 +4.5 99 +4  1022.1  1.1  758  300  +4.7        сухая 
06 18.10.17 280 (З) 0200 м  туман  ?/?  
+6.7 +6.4 98 +6  1023.3  1.3  759  298  +4.4         
09 18.10.17 240 (ЮЗ) 1000 м  дымка{туман}  10/10 600 м 
[Sc]
+10.7 +10.4 98 +11  1022.8  -0.4  759  292           
12 18.10.17 240 (ЮЗ) 20000 м  {туман}  1/0 верхняя 
[Ci fib]
+14.7 +10 73 +16  1021.3  -1.3  758  288           
15 18.10.17 220 (ЮЗ) 20000 м    ясно 
+12.2 +9.4 83 +12  1020.5  -0.9  757  290    +15       
18 18.10.17 220 (ЮЗ) 20000 м    ясно 
+10.5 +7.5 82 +10  1020.6  757  293           
21 18.10.17 230 (ЮЗ) 20000 м    3/0 верхняя 
[Ci fib]
+10.3 +6.9 79 +9  1019.6  -1  756  293           
00 19.10.17 240 (ЮЗ) 20000 м    ясно 
+8.4 +6 85 +8  1019.3  -0.4  756  295           
03 19.10.17 230 (ЮЗ) 20000 м    ясно 
+8.2 +5.1 81 +8  1019.1  0.1  756  295  +7.7        сухая 
06 19.10.17 240 (ЮЗ) 20000 м    3/0 верхняя 
[Ci fib]
+11 +7.5 79 +10  1018.9  0.1  756  292           
09 19.10.17 250 (З) 20000 м    ясно 
+17 +10.1 64 +18  1018  -0.7  756  285           
12 19.10.17 230 (ЮЗ) 20000 м    8/0 верхняя 
[Cc]
+18.2 +10.6 61 +20  1017.1  -0.9  755  283           
15 19.10.17 200 (Ю) 20000 м    8/0 верхняя 
[Ci fib]
+12.7 +9.1 79 +13  1017.2  755  289    +18.7       
18 19.10.17 230 (ЮЗ) 20000 м    ясно 
+11 +9.4 90 +12  1017.5  0.2  755  291           
21 19.10.17 250 (З) 20000 м    ясно 
+9 +8.2 95 +10  1017.4  -0.2  755  293           
00 20.10.17 280 (З) 0200 м  туман  ?/?  
+10.5 +10.1 97 +12  1017.3  755  291           
03 20.10.17 290 (З) 0200 м  туман  ?/?  
+11.2 +10.8 97 +14  1017.7  0.4  755  290  +8.6        сухая 
06 20.10.17 350 (С) 2000 м  в посл. час туман  10/10 200 м 
[St]
+11.4 +11 97 +15  1018.4  0.7  756  290           
09 20.10.17 280 (З) 4000 м  дымка  10/10 200 м 
[St]
+13.7 +11.7 88 +18  1018.5  0.7  756  288           
12 20.10.17 070 (В) 10 км    10/10 300 м 
[St]
+14.1 +11.2 83 +18  1018.2  -0.3  756  287           
15 20.10.17 060 (СВ) 10 км    10/10 300 м 
[St]
+12.7 +9.9 83 +15  1018.6  0.4  756  289    +14.1       
Время (UTC), дата Ветер
(°,м/с) 
Видим.   Явления Облачность Т
(°С)
Тd
(°С)
f(%) Тe
(°С)
Pmin
(гПа)
dP
(гПа)
Po
(мм)
O2
(г/м3)
Тmin Tmax R s Состояние
почвы

Для получения пояснительной информации подведите курсор к названию столбца.

ПОГОДА в Морозовске - архив

Всё, что Вы хотите узнать о погоде в Морозовске - удобно и подробно!

Выберите нужную дату (начиная с 1 января 2015* года) и нажмите кнопку "Найти".
Будут отображены архивные сводки погоды по пункту Морозовск, начиная с указанной даты.


Отображать данные в формате CSV (для использования в таблицах Excel)


Внимание! Наш архив погоды предназначен исключительно для личного некоммерческого использования в познавательных целях. Если Вам необходимы официальные справки о состоянии погоды (для производственных, юридических, коммерческих и т.п. целей), обращайтесь в органы Росгидромета.

*Примечание: данная дата относится к архиву по метеостанциям СССР (Россия, СНГ, Балтия).
Архив по метеостанциям Зарубежной Европы и Азии (кроме Китая) хранится 10 дней, по другим регионам земного шара (Китай, Африка, Америка, Австралия, Океания) - 1 день.

Морозовск - район местоположения метеостанции


Название, широта, долгота, высота метеостанции:
Морозовск 48.3°ш. 41.9°д. 90 м над ур. моря [Российская Федерация]

Дополнительная информация

В oтличие oт бoльшинства пoгoдных сайтoв мы публикуем пoдрoбную метеoинфoрмацию в детальнoм прoфессиoнальнoм фoрмате.

Характеристики температуры и влажнoсти вoздуха измеряются на высoте 2 м в тени вдали oт зданий и деревьев.
Скoрoсть ветра измеряется на высoте 10 м (на урoвне рoста челoвека скoрoсть ветра ниже в 1.5-2 раза). Если метеoстанция нахoдится в гoрoде или в лесу, тo скoрoсть ветра занижена на 2-4 м/с пo сравнению с oткрытым местoм. Скoрoсть ветра над акватoриями крупных рек и oзёр, а также на вершинах хoлмoв на 2-5 м/с выше, чем в oбычных услoвиях.
Атмoсфернoе давление в разных тoчках местнoсти мoжет значительнo oтличаться oт давления на метеoстанции, в зависимoсти oт услoвий рельефа (при пoдъёме на 10 м давление пoнижается примернo на 1 мм рт.ст.).